Location: Jalan Sepang
(2.8072°N, 101.8021°E)
Time: 04:43:54
(UTC+00:00)

SJ-7 - Pass Details

Date: 15 May 2026
Orbit: 490 x 513 km, 97.7° (Epoch: 7 June)

Event Time Altitude Azimuth Distance (km) Brightness Sun altitude
Exits shadow 12:44:28 37° 191° (S) 817 5.0 -21.4°
Maximum altitude 12:45:46 64° 258° (WSW) 571 4.5 -21.8°
Drops below altitude 10° 12:49:28 10° 340° (NNW) 1,723 7.4 -22.6°
Sets 12:51:33 0° 344° (NNW) 2,603 8.3 -23.1°
